Hourly Data Report for June 03, 2021

CARIBOU POINT (AUT)
NOVA SCOTIA
Current Station Operator: ECCC - MSC

45°46'00.000" N
62°41'00.000" W
2.40 m
8200774
71415
WBK

Download Data

Hourly Data (June 2021)
Hourly Data Report for June 3, 2021
TIME
LST
Temp Definition
°C
Dew Point Definition
°C
Rel Hum Definition
%
Precip. Amount Definition
mm

Wind Dir Definition
10's deg

Wind Spd Definition
km/h
Visibility Definition
km
Stn Press Definition
kPa
Hmdx Definition


Wind Chill Definition


Weather Definition


00:00 16.9 8.9 59 0.0 22 8   101.93     LegendNANA
01:00 15.9 8.5 61 0.0 22 9   101.93     LegendNANA
02:00 15.5 8.5 63 0.0 22 12   101.92     LegendNANA
03:00 15.4 8.0 62 0.0 23 12   101.94     LegendNANA
04:00 14.1 8.5 69 0.0 22 12   101.97     LegendNANA
05:00 14.1 8.7 70 0.0 23 8   102.01     LegendNANA
06:00 14.3 9.7 74 0.0 21 5   102.04     LegendNANA
07:00 15.9 10.9 72 0.0 22 4   102.05     LegendNANA
08:00 18.4 12.3 68 0.0 20 8   102.06     LegendNANA
09:00 21.8 13.1 58 0.0 21 6   102.05 25   LegendNANA
10:00 22.2 12.9 55 0.0 21 10   102.02 25   LegendNANA
11:00 23.7 10.7 44 0.0 22 12   102.00 25   LegendNANA
12:00 24.5 10.0 40 0.0 21 14   101.96 26   LegendNANA
13:00 26.0 10.2 37 0.0 22 12   101.90 27   LegendNANA
14:00 25.3 8.7 35 0.0 21 11   101.80 26   LegendNANA
15:00 23.7 9.7 41 0.0 21 19   101.74 25   LegendNANA
16:00 23.8 8.6 38 0.0 19 23   101.69     LegendNANA
17:00 20.7 11.7 56 0.0 20 14   101.68     LegendNANA
18:00 19.7 12.9 65 0.0 20 15   101.65     LegendNANA
19:00 19.2 13.1 68 0.0 20 19   101.64     LegendNANA
20:00 18.4 13.3 72 0.0 21 14   101.57     LegendNANA
21:00 17.8 13.1 74 0.0 21 14   101.55     LegendNANA
22:00 17.1 13.1 77 0.0 21 14   101.49     LegendNANA
23:00 16.8 12.9 78 0.0 20 18   101.38     LegendNANA

Notes on Data Quality.

Legend

  • E = Estimated
  • M = Missing
  • NA = Not Available*
  • [empty] = Indicates an unobserved value
Date modified: